Location: Le Sartre
(44.8050°N, 2.2123°E)
Time: 19:24:28
(UTC+00:00)

Cosmos 1892 Rocket - Pass Details

Date: 15 May 2026
Orbit: 598 x 626 km, 82.5° (Epoch: 7 June)

Event Time Altitude Azimuth Distance (km) Brightness Sun altitude
Rises 19:46:02 0° 353° (N) 2,863 7.6 -5.8°
Reaches altitude 10° 19:48:16 10° 356° (N) 1,953 6.7 -6.2°
Maximum altitude 19:52:34 69° 80° (E) 643 3.5 -6.8°
Drops below altitude 10° 19:56:49 10° 164° (SSE) 1,932 5.6 -7.4°
Enters shadow 19:58:23 - 166° (SSE) 2,567 6.3 -7.6°
